{"data":{"norad_id":60920,"epoch":"2026-05-25T03:01:29.659872Z","epoch_age_seconds":64055,"freshness":"FRESH","line1":"1 60920U 24154T   26145.12603773 -.00000034  00000+0  10997-4 0  9997","line2":"2 60920  53.1618 289.0896 0001270  98.7592 261.3552 15.30192471 98043","mean_motion":15.30192471,"eccentricity":0.000127,"inclination_deg":53.1618,"raan_deg":289.0896,"arg_perigee_deg":98.7592,"mean_anomaly_deg":261.3552,"bstar":1.0997e-5,"rev_number":9804,"period_min":94.105808732606,"perigee_km":474.36717118057,"apogee_km":476.10792831621,"semimajor_km":6853.3745497484,"source":"CELESTRAK","updated_at":"2026-05-25T13:38:19.315697Z"}}